Find SITRO-AIS-28

NORAD ID: 59071 Int'l Des: 2024-039 Owner: SITRO Country: RU Constellation: sitronics operational
LEORETROGRADE

Live Position

Loading 3D Globe...

About SITRO-AIS-28

Description loading...

Upcoming Passes

Passes for default location (London). Set your location on the main map for personalized predictions.

Altitude History

Loading altitude history...

Two-Line Element Set

1 59071U 24039U 26106.95423863 .00002866 00000-0 22527-3 0 9998
2 59071 95.3931 193.2241 0145397 180.4759 179.6353 14.93246999115602
Epoch: Apr 16, 2026 • Age: 7 hours

Current Status

Altitude 497.4 km
Velocity 7.67 km/s
Sub-Earth Point 23.52°N, 79.84°E
Launch Date Feb 29, 2024
Age 2.1 years
Type other

Technical Details

Classification Payload
Mass 3.00 kg
Dry Mass 3.00 kg
Total Mass 3.00 kg
Length 0.30 m
Diameter 0.10 m
Span 0.30 m
Shape Box
Manufacturer SPUT
Bus Type Cubesat 3U
Phase Status In Orbit
Owner/State SITRO/RU

Most Searched